Portsmouth Weather Center

Moon Phase Calendar



Online Cameras

 


      

Current Conditions in New Castle
1/19/2021 3:33:05 AM

25°F
Feels Like 13
Clear
Humidity
54%
Pressure
29.85"
Wind
11.5 mph (W)
Dew Point
12°F
UV Index
0/10 (Low)
Visibility
6 mi

Hourly Forecast

Date & Time Tue, Jan 19
3:00 AM
Tue, Jan 19
4:00 AM
Tue, Jan 19
5:00 AM
Tue, Jan 19
6:00 AM
Tue, Jan 19
7:00 AM
Tue, Jan 19
8:00 AM
Tue, Jan 19
9:00 AM
Tue, Jan 19
10:00 AM
Tue, Jan 19
11:00 AM
Tue, Jan 19
12:00 PM
Tue, Jan 19
1:00 PM
Tue, Jan 19
2:00 PM
Tue, Jan 19
3:00 PM
Tue, Jan 19
4:00 PM
Tue, Jan 19
5:00 PM
Tue, Jan 19
6:00 PM
Tue, Jan 19
7:00 PM
Tue, Jan 19
8:00 PM
Tue, Jan 19
9:00 PM
Tue, Jan 19
10:00 PM
Tue, Jan 19
11:00 PM
Wed, Jan 20
12:00 AM
Wed, Jan 20
1:00 AM
Wed, Jan 20
2:00 AM
Wed, Jan 20
3:00 AM
Wed, Jan 20
4:00 AM
Wed, Jan 20
5:00 AM
Wed, Jan 20
6:00 AM
Wed, Jan 20
7:00 AM
Wed, Jan 20
8:00 AM
Wed, Jan 20
9:00 AM
Wed, Jan 20
10:00 AM
Wed, Jan 20
11:00 AM
Wed, Jan 20
12:00 PM
Wed, Jan 20
1:00 PM
Wed, Jan 20
2:00 PM
Wed, Jan 20
3:00 PM
Wed, Jan 20
4:00 PM
Wed, Jan 20
5:00 PM
Wed, Jan 20
6:00 PM
Wed, Jan 20
7:00 PM
Wed, Jan 20
8:00 PM
Wed, Jan 20
9:00 PM
Wed, Jan 20
10:00 PM
Wed, Jan 20
11:00 PM
Thu, Jan 21
12:00 AM
Thu, Jan 21
1:00 AM
Thu, Jan 21
2:00 AM
Condition
Clear

Clear

Clear

Clear

Clear

Clear

Clear

Clear

Clouds

Clouds

Clouds

Clouds

Clouds

Clouds

Clouds

Clouds

Clouds

Clouds

Clouds

Clouds

Clouds

Clouds

Clouds

Clouds

Clouds

Clouds

Clouds

Clouds

Clouds

Clouds

Clouds

Clouds

Clouds

Clouds

Clouds

Clouds

Clouds

Clouds

Clouds

Clouds

Clouds

Clear

Clear

Clear

Clear

Clear

Clear

Clouds
Temperature 25°F26°F27°F27°F27°F28°F30°F32°F34°F36°F36°F37°F36°F35°F34°F33°F32°F31°F32°F33°F33°F32°F31°F31°F30°F30°F30°F29°F29°F30°F31°F32°F33°F34°F34°F34°F33°F32°F30°F28°F27°F25°F24°F23°F23°F22°F22°F22°F
Feels Like 13°F14°F15°F17°F17°F17°F19°F22°F24°F26°F26°F26°F25°F26°F25°F24°F24°F23°F22°F22°F21°F21°F20°F19°F19°F18°F18°F18°F18°F18°F19°F21°F22°F22°F23°F23°F22°F20°F18°F15°F13°F11°F11°F11°F11°F11°F11°F11°F
Cloudiness 1%1%0%9%8%0%9%8%26%23%27%74%85%81%78%82%75%41%65%77%82%74%62%45%35%26%34%36%39%97%99%99%99%99%100%100%100%100%97%94%88%0%0%0%0%0%2%62%
Visibility 6 mi6 mi6 mi6 mi6 mi6 mi6 mi6 mi6 mi6 mi6 mi6 mi6 mi6 mi6 mi6 mi6 mi6 mi6 mi6 mi6 mi6 mi6 mi6 mi6 mi6 mi6 mi6 mi6 mi6 mi6 mi6 mi6 mi6 mi6 mi6 mi6 mi6 mi6 mi6 mi6 mi6 mi6 mi6 mi6 mi6 mi6 mi6 mi
Precipitation 0%0%0%0%0%0%0%0%0%0%0%0%0%0%0%0%0%0%0%0%0%0%0%0%0%0%0%0%0%0%0%0%0%0%0%0%0%0%0%0%0%0%0%0%0%0%0%0%
Humidity 54%69%77%81%82%81%79%78%71%66%65%67%70%75%81%84%88%89%90%89%88%91%90%89%89%89%88%88%88%87%86%83%77%75%73%73%76%82%85%89%83%81%81%80%80%79%80%79%
Dew Point 12°F18°F21°F22°F23°F11°F10°F10°F10°F10°F10°F13°F16°F18°F19°F20°F20°F21°F23°F24°F23°F23°F22°F20°F20°F19°F19°F18°F18°F17°F17°F16°F14°F13°F13°F12°F13°F14°F16°F17°F12°F8°F8°F6°F5°F5°F5°F4°F
Pressure 29.85"29.85"29.88"29.91"29.94"29.97"29.97"29.97"29.97"29.94"29.94"29.94"29.94"29.97"29.97"29.97"29.97"29.97"29.97"29.97"29.94"29.94"29.91"29.88"29.88"29.88"29.88"29.88"29.85"29.85"29.85"29.85"29.83"29.83"29.8"29.8"29.8"29.83"29.85"29.88"29.91"29.94"29.94"29.91"29.91"29.91"29.91"29.91"
Wind Speed 10.8 mph11.5 mph11.1 mph9.8 mph9.6 mph10.2 mph10 mph10 mph10 mph9.8 mph10.8 mph11.5 mph11.7 mph10 mph8.2 mph8 mph7.1 mph7 mph10.3 mph12.5 mph13.8 mph12.8 mph12.2 mph13.2 mph12.8 mph12.8 mph12.7 mph12.6 mph12.5 mph12.5 mph12.7 mph13 mph12.8 mph12.6 mph12.4 mph12.4 mph13.4 mph13.2 mph13.8 mph14.3 mph15.4 mph16.5 mph14.5 mph13 mph11.6 mph11 mph10.2 mph10.2 mph
Wind
Direction
286°
WNW
290°
WNW
295°
WNW
294°
WNW
290°
WNW
293°
WNW
290°
WNW
290°
WNW
288°
WNW
287°
WNW
286°
WNW
289°
WNW
294°
WNW
298°
WNW
295°
WNW
285°
WNW
278°
W
258°
WSW
248°
WSW
255°
WSW
256°
WSW
255°
WSW
254°
WSW
261°
W
261°
W
263°
W
267°
W
270°
W
270°
W
271°
W
278°
W
290°
WNW
300°
WNW
303°
WNW
306°
NW
306°
NW
305°
NW
305°
NW
305°
NW
311°
NW
306°
NW
304°
NW
305°
NW
305°
NW
302°
WNW
299°
WNW
297°
WNW
291°
WNW

Daily Forecast

Date High Low Precip. Humidity
Today
Jan 19

Clouds
37 °F
25 °F
0%
71%
Wednesday
Jan 20

Clouds
34 °F
23 °F
0%
77%
Thursday
Jan 21

Clouds
33 °F
22 °F
0%
76%
Friday
Jan 22

Clear
40 °F
30 °F
0%
78%
Saturday
Jan 23

Snow
30 °F
19 °F
56%
84%
Sunday
Jan 24

Clear
30 °F
17 °F
0%
81%
Monday
Jan 25

Snow
38 °F
23 °F
100%
87%
Tuesday
Jan 26

Snow
36 °F
25 °F
100%
95%
Wednesday
Jan 27

Clear
33 °F
22 °F
3%
91%
Thursday
Jan 28

Snow
34 °F
24 °F
88%
96%
Friday
Jan 29

Clear
33 °F
24 °F
31%
90%
Saturday
Jan 30

Clouds
29 °F
20 °F
0%
91%
Sunday
Jan 31

Clouds
29 °F
23 °F
0%
92%
Monday
Feb 1

Clear
32 °F
19 °F
0%
90%
Tuesday
Feb 2

Clear
34 °F
21 °F
0%
88%
Wednesday
Feb 3

Clouds
39 °F
27 °F
0%
84%


Temperature 8-14 Day Outlook



Precipitation 8-14 Day Outlook




Quick Links
Portsmouth News
Portsmouth Photos
Portsmouth Videos




About Us
Contact Us
Site Map
Search Site
Advertise With Us
   
Portsmouth.USCoast.info
THE PORTSMOUTH WEBSITE

Copyright 2021, Coastal Town
Privacy    |    Legal